Santorini Island, Greece

4:56 PM EEST on July 25, 2017 (GMT +0300)
Santorini

Weather History for LGSR - February, 2013

Change the Weather History Date:

Wednesday, February 20, 2013

  Actual Average Record
Temperature  
Mean Temperature 53 °F -  
Max Temperature 60 °F 56 °F 66 °F (2002)
Min Temperature 46 °F 48 °F 41 °F (2001)
Degree Days  
Heating Degree Days 12    
Growing Degree Days 3 (Base 50)    
Moisture  
Dew Point 41 °F    
Average Humidity 61    
Maximum Humidity 76    
Minimum Humidity 48    
Precipitation  
Precipitation 0.00 in - - ()
Sea Level Pressure  
Sea Level Pressure 29.98 in    
Wind  
Wind Speed 11 mph ()    
Max Wind Speed 22 mph    
Max Gust Speed 23 mph    
Visibility 6.2 miles    
Events Rain    
Averages and records for this station are not official NWS values.
T = Trace of Precipitation, MM = Missing Value Source: Averaged Metar Reports

Daily Weather History Graph

Daily Weather History Graph

Search for Another Location

Airport or City:

Trip Planner

Search our weather history database for the weather conditions in past years. The results will help you decide how hot, cold, wet, or windy it might be!

Date:

Astronomy

Feb. 20, 2013 Rise Set
Actual Time 7:00 AM EET 6:04 PM EET
Civil Twilight 6:33 AM EET 6:30 PM EET
Nautical Twilight 6:03 AM EET 7:00 PM EET
Astronomical Twilight 5:34 AM EET 7:30 PM EET
Moon 1:14 PM EET (2/20) 3:00 AM EET (2/20)
Length of Visible Light 11h 56m
Length of Day
11h 03m
Waxing Gibbous, 73% of the Moon is Illuminated
Feb 20
Waxing Gibbous
Feb 25
Full
Mar 4
Last Quarter
Mar 11
New
Mar 19
First Quarter

Hourly Weather History & Observations

Time (EET) Temp. Dew Point Humidity Pressure Visibility Wind Dir Wind Speed Gust Speed Precip Events Conditions
12:20 AM 60.8 °F 46.4 °F 59% 29.83 in 6.2 mi SSW 21.9 mph - N/A   Scattered Clouds
12:50 AM 60.8 °F 48.2 °F 63% 29.83 in 6.2 mi SW 17.3 mph - N/A   Scattered Clouds
1:20 AM 55.4 °F 44.6 °F 67% 29.83 in 6.2 mi SW 11.5 mph 23.0 mph N/A   Scattered Clouds
2:20 AM 57.2 °F 46.4 °F 67% 29.83 in - North - - N/A   Unknown
2:50 AM 57.2 °F 48.2 °F 72% 29.83 in - North - - N/A Rain Light Rain
3:20 AM 57.2 °F 48.2 °F 72% 29.83 in - North - - N/A   Unknown
3:50 AM 57.2 °F 46.4 °F 67% 29.83 in - North - - N/A   Unknown
4:20 AM 55.4 °F 44.6 °F 67% 29.86 in - North - - N/A   Unknown
4:50 AM 53.6 °F 42.8 °F 67% 29.86 in - North - - N/A   Unknown
5:20 AM 53.6 °F 42.8 °F 67% 29.89 in - North - - N/A   Unknown
5:50 AM 53.6 °F 42.8 °F 67% 29.89 in - North - - N/A   Unknown
6:20 AM 53.6 °F 39.2 °F 58% 29.92 in - North - - N/A   Unknown
6:50 AM 53.6 °F 39.2 °F 58% 29.92 in - North - - N/A   Unknown
7:20 AM 53.6 °F 39.2 °F 58% 29.95 in 6.2 mi NW 13.8 mph - N/A   Partly Cloudy
7:50 AM 53.6 °F 39.2 °F 58% 29.95 in 6.2 mi NW 11.5 mph - N/A   Partly Cloudy
8:20 AM 55.4 °F 39.2 °F 54% 29.98 in 6.2 mi NW 11.5 mph - N/A   Partly Cloudy
8:50 AM 55.4 °F 39.2 °F 54% 29.98 in 6.2 mi NW 11.5 mph - N/A   Partly Cloudy
9:50 AM 57.2 °F 39.2 °F 51% 30.01 in 6.2 mi NW 13.8 mph - N/A   Partly Cloudy
10:20 AM 57.2 °F 37.4 °F 48% 30.01 in 6.2 mi NNW 13.8 mph - N/A   Partly Cloudy
10:50 AM 57.2 °F 37.4 °F 48% 30.01 in 6.2 mi NNW 9.2 mph - N/A   Partly Cloudy
11:20 AM 59.0 °F 39.2 °F 48% 30.01 in 6.2 mi North 13.8 mph - N/A   Partly Cloudy
11:50 AM 59.0 °F 39.2 °F 48% 30.04 in 6.2 mi North 11.5 mph - N/A   Partly Cloudy
12:50 PM 59.0 °F 41.0 °F 51% 30.04 in 6.2 mi North 9.2 mph - N/A   Partly Cloudy
1:20 PM 59.0 °F 41.0 °F 51% 30.04 in 6.2 mi North 6.9 mph - N/A   Partly Cloudy
1:50 PM 59.0 °F 39.2 °F 48% 30.04 in 6.2 mi North 9.2 mph - N/A   Partly Cloudy
2:20 PM 59.0 °F 39.2 °F 48% 30.04 in 6.2 mi NNE 9.2 mph - N/A   Partly Cloudy
2:50 PM 59.0 °F 39.2 °F 48% 30.04 in 6.2 mi North 8.1 mph - N/A   Partly Cloudy
3:20 PM 59.0 °F 39.2 °F 48% 30.04 in 6.2 mi NNE 8.1 mph - N/A   Partly Cloudy
3:50 PM 57.2 °F 39.2 °F 51% 30.04 in 6.2 mi North 5.8 mph - N/A   Scattered Clouds
4:20 PM 57.2 °F 41.0 °F 55% 30.04 in 6.2 mi NNE 6.9 mph - N/A   Scattered Clouds
4:50 PM 57.2 °F 42.8 °F 59% 30.01 in 6.2 mi NNE 8.1 mph - N/A   Scattered Clouds
5:20 PM 57.2 °F 41.0 °F 55% 30.04 in 6.2 mi NNE 4.6 mph - N/A   Scattered Clouds
5:50 PM 55.4 °F 41.0 °F 58% 30.04 in 6.2 mi ENE 3.5 mph - N/A   Scattered Clouds
6:20 PM 55.4 °F 41.0 °F 58% 30.04 in - North - - N/A   Unknown
6:50 PM 50.0 °F 41.0 °F 71% 30.04 in - North - - N/A   Unknown
7:20 PM 50.0 °F 41.0 °F 71% 30.04 in - North - - N/A   Unknown
7:50 PM 50.0 °F 41.0 °F 71% 30.04 in 6.2 mi NW 3.5 mph - N/A   Scattered Clouds
8:20 PM 48.2 °F 41.0 °F 76% 30.04 in - North - - N/A   Unknown
8:50 PM 48.2 °F 39.2 °F 71% 30.04 in - North - - N/A   Unknown
9:20 PM 48.2 °F 39.2 °F 71% 30.06 in - North - - N/A   Unknown
9:50 PM 46.4 °F 39.2 °F 76% 30.06 in - North - - N/A   Unknown
10:20 PM 48.2 °F 39.2 °F 71% 30.06 in - North - - N/A   Unknown
10:50 PM 48.2 °F 39.2 °F 71% 30.06 in - North - - N/A   Unknown
11:20 PM 46.4 °F 39.2 °F 76% 30.06 in - North - - N/A   Unknown
11:50 PM 46.4 °F 39.2 °F 76% 30.06 in - North - - N/A   Unknown